Regional Weather Roundup
Issued by NWS

Home | Current Version | Previous Version | Text Only | Print | Product List | Glossary On
Versions: 1 2 3 4 5 6 7 8 9 10 11 12 13 14 15 16 17 18 19 20 21 22 23 24 25 26 27 28 29 30 31 32 33 34 35 36 37 38 39 40 41 42 43 44 45 46 47 48 49 50
000
ASUS43 KLOT 301903
RWRIL

ILLINOIS REGIONAL WEATHER ROUNDUP
NATIONAL WEATHER SERVICE CHICAGO/ROMEOVILLE IL
200 PM CDT SAT APR 30 2016

NOTE: "FAIR" INDICATES FEW OR NO CLOUDS BELOW 12,000 FEET WITH NO
SIGNIFICANT WEATHER AND/OR OBSTRUCTIONS TO VISIBILITY.

* THESE STATIONS ARE NOT UNDER NWS QUALITY CONTROL. THEY ALSO MAY NOT
  REPORT WEATHER SUCH AS PRECIPITATION OR FOG.

ILZ001-002-007-009-015-016-024-302000-
NORTHWEST ILLINOIS

CITY           SKY/WX    TMP DP  RH WIND       PRES   REMARKS
MOLINE         HVY RAIN  50  46  86 E17G28    29.82R VSB 1
STERLING*      CLOUDY    48  46  93 E26       29.86F
$$

ILZ003-004-008-010-011-017-018-302000-
NORTH CENTRAL ILLINOIS

CITY           SKY/WX    TMP DP  RH WIND       PRES   REMARKS
ROCKFORD       LGT RAIN  46  42  86 E15G29    29.95F FOG
FREEPORT*      LGT RAIN  46  44  93 NE20G26   29.94F
DE KALB*       LGT RAIN  45  43  93 E18G25    29.93F
$$

ILZ005-006-012>014-019>023-302000-
NORTHEAST ILLINOIS

CITY           SKY/WX    TMP DP  RH WIND       PRES   REMARKS
CHICAGO-OHARE  LGT RAIN  45  42  89 E18G29    29.95F FOG
CHICAGO-MIDWAY LGT RAIN  47  42  83 E16       29.94F
AURORA         LGT RAIN  46  43  89 NE12      29.93S FOG
LANSING*       LGT RAIN  47  45  92 E10G18    29.94S
WAUKEGAN       LGT RAIN  43  41  93 NE12      29.98F FOG
DUPAGE AIRPORT LGT RAIN  45  41  86 NE17      29.92F FOG
WHEELING       LGT RAIN  45  42  89 E10G18    29.99F FOG
NORTHERLY ISL    N/A     45  42  89 NE21        N/A
NORTHERLY ISL    N/A     45  42  89 NE21        N/A
$$

LMZ740>746-302000-
SOUTHERN LAKE MICHIGAN

STATION/POSITION SKY/WX   TEMP    WIND        PRES    VSBY  WAVE
                          AIR SEA DIR/SP/G                  HT/PER
                          (F)     (DEG/KT/KT) (MB)    (MI)  (FT/S)
SOUTHERN BUOY              42 40   70/ 12/ 14 1017.3          1/ 3
HARRISON CRIB              44      80/ 16/ 18   N/A
BURNHAM HARBOR             45      50/ 17/ 20   N/A
CALUMET HARBOR             45      60/ 17/ 19 1014.7F
BURNS HARBOR               46      90/ 10/ 16 1015.9F
MICHIGAN CITY              46      60/ 13/ 15   N/A
ST. JOSEPH                 47 47                N/A           1
$$

ILZ025>027-034>036-040-047-049-050-058-095>099-302000-
WEST-CENTRAL ILLINOIS

CITY           SKY/WX    TMP DP  RH WIND       PRES   REMARKS
QUINCY         CLOUDY    62  59  90 SE10      29.71F
MACOMB*        CLOUDY    56  56  99 SE17      29.77F
$$

ILZ028>032-037-038-041>044-048-051>054-059>061-302000-
CENTRAL ILLINOIS

CITY           SKY/WX    TMP DP  RH WIND       PRES   REMARKS
BLOOMINGTON    LGT RAIN  55  55 100 SE16G23   29.82F FOG
DECATUR        CLOUDY    59  56  89 SE12      29.80F
PEORIA         LGT RAIN  55  53  93 E9G20     29.80S FOG
SPRINGFIELD    CLOUDY    61  61 100 SE10      29.76F
TAYLORVILLE    NOT AVBL
$$

ILZ033-039-045-046-055>057-062-063-302000-
EAST-CENTRAL ILLINOIS

CITY           SKY/WX    TMP DP  RH WIND       PRES   REMARKS
CHAMPAIGN      CLOUDY    56  56 100 SE15      29.82F
MATTOON        CLOUDY    59  57  93 SE15G23   29.80F
$$

ILZ079-100>102-302000-
SOUTHWEST ILLINOIS

CITY           SKY/WX    TMP DP  RH WIND       PRES   REMARKS
CAHOKIA*       CLOUDY    70  62  76 S10       29.74F
SPARTA*        CLOUDY    69  63  79 SW8       29.78R
$$

ILZ064>066-069>071-074>076-080>082-084>086-088>090-092>094-302000-
SOUTH-CENTRAL ILLINOIS

CITY           SKY/WX    TMP DP  RH WIND       PRES   REMARKS
CARBONDALE     CLOUDY    71  61  70 S14G23    29.78F
MARION         CLOUDY    72  64  78 S15       29.80F
MT. VERNON     CLOUDY    70  61  73 S12       29.80F
SALEM*         CLOUDY    66  62  86 SE8       29.78F
$$

ILZ067-068-072-073-078-083-087-091-302000-
SOUTHEAST ILLINOIS

CITY           SKY/WX    TMP DP  RH WIND       PRES   REMARKS
LAWRENCEVILLE  CLOUDY    64  62  93 S15       29.86F
FLORA*         CLOUDY    66  63  89 SE15      29.80F
HARRISBURG*    CLOUDY    70  64  83 S9        29.83S
ROBINSON*      CLOUDY    60  59  96 SE12      29.85F
$$

ABBREVIATIONS USED IN REMARKS
   TC - TEMPERATURE IN CELSIUS
  WCI - WIND CHILL INDEX
   HX - HEAT INDEX
  VSB - VISIBILITY
$$




USA.gov is the U.S. government's official web portal to all federal, state and local government web resources and services.